TimeCST,TemperatureF,Dew PointF,Humidity,Sea Level PressureIn,VisibilityMPH,Wind Direction,Wind SpeedMPH,Gust SpeedMPH,PrecipitationIn,Events,Conditions,WindDirDegrees,DateUTC
12:15 AM,10.4,1.4,67,30.55,10.0,WSW,5.8,-,N/A,,Overcast,250,2013-11-24 06:15:00
12:35 AM,10.4,1.4,67,30.55,8.0,West,11.5,-,N/A,,Overcast,260,2013-11-24 06:35:00
12:55 AM,8.6,3.2,79,30.55,5.0,WSW,9.2,-,N/A,,Overcast,240,2013-11-24 06:55:00
1:15 AM,8.6,1.4,73,30.55,5.0,WSW,9.2,-,N/A,,Overcast,250,2013-11-24 07:15:00
1:35 AM,8.6,1.4,73,30.54,3.0,WSW,10.4,-,N/A,,Overcast,250,2013-11-24 07:35:00
1:55 AM,8.6,1.4,73,30.54,4.0,WSW,10.4,-,N/A,,Overcast,250,2013-11-24 07:55:00
2:15 AM,8.6,1.4,73,30.54,6.0,WSW,8.1,-,N/A,,Overcast,250,2013-11-24 08:15:00
2:35 AM,8.6,1.4,73,30.54,10.0,West,6.9,-,N/A,,Overcast,260,2013-11-24 08:35:00
2:55 AM,8.6,-0.4,67,30.53,10.0,WSW,10.4,-,N/A,,Overcast,250,2013-11-24 08:55:00
3:15 AM,6.8,-0.4,72,30.53,10.0,WSW,11.5,-,N/A,,Overcast,250,2013-11-24 09:15:00
3:35 AM,6.8,-2.2,67,30.52,10.0,WSW,10.4,-,N/A,,Overcast,250,2013-11-24 09:35:00
3:55 AM,5.0,-4.0,66,30.52,10.0,WSW,6.9,-,N/A,,Scattered Clouds,240,2013-11-24 09:55:00
4:15 AM,3.2,-2.2,78,30.52,10.0,WSW,4.6,-,N/A,,Partly Cloudy,240,2013-11-24 10:15:00
4:35 AM,1.4,-7.6,66,30.51,10.0,SW,5.8,-,N/A,,Clear,230,2013-11-24 10:35:00
4:55 AM,1.4,-4.0,78,30.51,10.0,SW,5.8,-,N/A,,Clear,220,2013-11-24 10:55:00
5:15 AM,3.2,-0.4,85,30.50,10.0,SSW,6.9,-,N/A,,Scattered Clouds,210,2013-11-24 11:15:00
5:35 AM,3.2,-2.2,78,30.49,10.0,SSW,4.6,-,N/A,,Partly Cloudy,210,2013-11-24 11:35:00
5:55 AM,3.2,-4.0,72,30.49,10.0,SSW,3.5,-,N/A,,Clear,200,2013-11-24 11:55:00
6:15 AM,3.2,-2.2,78,30.49,10.0,SSW,3.5,-,N/A,,Clear,200,2013-11-24 12:15:00
6:35 AM,1.4,-5.8,72,30.49,10.0,SSW,3.5,-,N/A,,Clear,200,2013-11-24 12:35:00
6:55 AM,1.4,-2.2,85,30.48,10.0,Calm,Calm,-,N/A,,Clear,0,2013-11-24 12:55:00
7:15 AM,1.4,-4.0,78,30.47,10.0,Calm,Calm,-,N/A,,Mostly Cloudy,0,2013-11-24 13:15:00
7:35 AM,3.2,-2.2,78,30.48,10.0,Calm,Calm,-,N/A,,Overcast,0,2013-11-24 13:35:00
7:55 AM,3.2,-0.4,85,30.47,10.0,South,3.5,-,N/A,,Overcast,180,2013-11-24 13:55:00
8:15 AM,6.8,-2.2,67,30.46,10.0,SSW,9.2,-,N/A,,Overcast,200,2013-11-24 14:15:00
8:35 AM,6.8,-0.4,72,30.45,10.0,SSW,9.2,-,N/A,,Overcast,200,2013-11-24 14:35:00
8:55 AM,6.8,-2.2,67,30.43,10.0,South,8.1,-,N/A,,Overcast,170,2013-11-24 14:55:00
9:15 AM,8.6,-2.2,62,30.43,10.0,South,9.2,-,N/A,,Overcast,190,2013-11-24 15:15:00
9:35 AM,8.6,-2.2,62,30.41,10.0,SSW,12.7,17.3,N/A,,Overcast,200,2013-11-24 15:35:00
9:55 AM,8.6,-2.2,62,30.40,10.0,SSW,6.9,-,N/A,,Overcast,210,2013-11-24 15:55:00
10:15 AM,10.4,-0.4,62,30.39,10.0,SSW,9.2,-,N/A,,Overcast,200,2013-11-24 16:15:00
10:35 AM,10.4,-0.4,62,30.37,10.0,South,8.1,-,N/A,,Overcast,170,2013-11-24 16:35:00
10:55 AM,12.2,-0.4,57,30.35,10.0,SSW,11.5,17.3,N/A,,Overcast,200,2013-11-24 16:55:00
11:15 AM,12.2,-0.4,57,30.32,10.0,South,10.4,19.6,N/A,,Overcast,190,2013-11-24 17:15:00
11:35 AM,12.2,-0.4,57,30.30,10.0,South,12.7,18.4,N/A,,Overcast,170,2013-11-24 17:35:00
11:55 AM,12.2,-0.4,57,30.29,10.0,South,11.5,18.4,N/A,,Overcast,190,2013-11-24 17:55:00
12:15 PM,14.0,-0.4,53,30.27,10.0,South,12.7,17.3,N/A,,Mostly Cloudy,190,2013-11-24 18:15:00
12:35 PM,14.0,-0.4,53,30.23,10.0,South,6.9,16.1,N/A,,Mostly Cloudy,190,2013-11-24 18:35:00
12:55 PM,14.0,-0.4,53,30.21,10.0,South,12.7,18.4,N/A,,Mostly Cloudy,180,2013-11-24 18:55:00
1:15 PM,15.8,1.4,53,30.19,10.0,South,13.8,19.6,N/A,,Mostly Cloudy,190,2013-11-24 19:15:00
1:35 PM,15.8,1.4,53,30.16,10.0,South,11.5,19.6,N/A,,Partly Cloudy,180,2013-11-24 19:35:00
1:55 PM,15.8,1.4,53,30.13,10.0,SSE,11.5,20.7,N/A,,Clear,160,2013-11-24 19:55:00
2:15 PM,17.6,1.4,49,30.11,10.0,South,12.7,26.5,N/A,,Clear,180,2013-11-24 20:15:00
2:35 PM,17.6,1.4,49,30.09,10.0,South,15.0,25.3,N/A,,Clear,190,2013-11-24 20:35:00
2:55 PM,17.6,3.2,53,30.08,10.0,South,17.3,24.2,N/A,,Clear,190,2013-11-24 20:55:00
3:15 PM,17.6,3.2,53,30.05,10.0,South,13.8,25.3,N/A,,Clear,190,2013-11-24 21:15:00
3:35 PM,19.4,3.2,49,30.03,10.0,South,16.1,24.2,N/A,,Clear,190,2013-11-24 21:35:00
3:55 PM,-9999,-9999,N/A,30.00,9.0,South,19.6,29.9,N/A,,Scattered Clouds,190,2013-11-24 21:55:00
4:15 PM,19.4,3.2,49,29.99,8.0,SSW,18.4,29.9,N/A,,Scattered Clouds,200,2013-11-24 22:15:00
4:35 PM,19.4,3.2,49,29.97,5.0,South,20.7,33.4,N/A,,Clear,190,2013-11-24 22:35:00
4:55 PM,19.4,6.8,58,29.95,5.0,South,20.7,29.9,N/A,,Clear,190,2013-11-24 22:55:00
5:15 PM,19.4,5.0,54,29.94,3.0,South,18.4,38.0,N/A,,Clear,190,2013-11-24 23:15:00
5:35 PM,19.4,6.8,58,29.94,7.0,South,20.7,31.1,N/A,,Clear,190,2013-11-24 23:35:00
5:55 PM,21.2,6.8,54,29.94,6.0,SSW,19.6,31.1,N/A,,Clear,200,2013-11-24 23:55:00
6:15 PM,21.2,6.8,54,29.92,7.0,SSW,19.6,29.9,N/A,,Clear,210,2013-11-25 00:15:00
6:35 PM,21.2,6.8,54,29.91,10.0,SSW,13.8,31.1,N/A,,Clear,200,2013-11-25 00:35:00
6:55 PM,21.2,6.8,54,29.90,7.0,SSW,17.3,34.5,N/A,,Partly Cloudy,200,2013-11-25 00:55:00
7:15 PM,21.2,6.8,54,29.90,8.0,SSW,13.8,26.5,N/A,,Mostly Cloudy,210,2013-11-25 01:15:00
7:35 PM,-9999,-9999,N/A,29.91,10.0,SW,17.3,25.3,N/A,,Mostly Cloudy,220,2013-11-25 01:35:00
7:55 PM,23.0,6.8,50,29.90,10.0,SSW,18.4,24.2,N/A,,Partly Cloudy,210,2013-11-25 01:55:00
8:15 PM,-9999,-9999,N/A,29.89,10.0,SSW,20.7,28.8,N/A,,Clear,210,2013-11-25 02:15:00
8:35 PM,-9999,-9999,N/A,29.89,10.0,SSW,13.8,24.2,N/A,,Clear,210,2013-11-25 02:35:00
8:55 PM,-9999,-9999,N/A,29.88,10.0,SW,17.3,24.2,N/A,,Clear,220,2013-11-25 02:55:00
9:15 PM,24.8,8.6,50,29.87,10.0,SSW,16.1,25.3,N/A,,Partly Cloudy,210,2013-11-25 03:15:00
9:35 PM,-9999,-9999,N/A,29.85,10.0,SW,20.7,28.8,N/A,,Partly Cloudy,220,2013-11-25 03:35:00
9:55 PM,-9999,-9999,N/A,29.83,10.0,SSW,15.0,28.8,N/A,,Clear,210,2013-11-25 03:55:00
10:15 PM,24.8,10.4,54,29.83,10.0,SSW,19.6,29.9,N/A,,Scattered Clouds,210,2013-11-25 04:15:00
10:35 PM,-9999,-9999,N/A,29.82,10.0,SW,17.3,28.8,N/A,,Overcast,220,2013-11-25 04:35:00
10:55 PM,-9999,-9999,N/A,29.81,10.0,SW,16.1,27.6,N/A,,Overcast,220,2013-11-25 04:55:00
11:15 PM,26.6,10.4,51,29.81,10.0,SW,18.4,28.8,N/A,,Overcast,220,2013-11-25 05:15:00
11:35 PM,-9999,-9999,N/A,29.79,10.0,SSW,19.6,28.8,N/A,,Overcast,210,2013-11-25 05:35:00
11:55 PM,-9999,-9999,N/A,29.77,10.0,SSW,20.7,32.2,N/A,,Overcast,210,2013-11-25 05:55:00